Stations météo

réclame
Mon MeteoGroup
Le Touquet, France (7003): Température de l'air & dewpoint: 17.09.2017 21:00:00 - 23.09.2017 21:00:00 (CEST)Le Touquet, France (7003): Température de l'air 5cm: 17.09.2017 21:00:00 - 23.09.2017 21:00:00 (CEST)Le Touquet, France (7003): Vitesse du vent & gusts: 17.09.2017 21:00:00 - 23.09.2017 21:00:00 (CEST)Le Touquet, France (7003): Direction du vent: 17.09.2017 21:00:00 - 23.09.2017 21:00:00 (CEST)Le Touquet, France (7003): reduced air pressure: 17.09.2017 21:00:00 - 23.09.2017 21:00:00 (CEST)Le Touquet, France (7003): visibility: 17.09.2017 21:00:00 - 23.09.2017 21:00:00 (CEST)Le Touquet, France (7003): Ensoleillement: 17.09.2017 21:00:00 - 23.09.2017 21:00:00 (CEST)Le Touquet, France (7003): Quantités de précipitations: 17.09.2017 21:00:00 - 23.09.2017 21:00:00 (CEST)
Date & Time tt [°C] td [°C] tt 5cm [°C] ff [km/h] ff [knt] fx [km/h] fx [knt] dd ppp [hPa] vv [km] sd [min] rr [mm]
23.09.2017 21:00:00 11,4 10,5 8,0 3 1 5 3 SSE 1021,8 8 0 0,0
23.09.2017 20:00:00 13,6 10,8 8,8 0 0 9 5 N 1021,5 8 0 0,0
23.09.2017 19:00:00 14,9 11,3 14,1 8 4 16 8 NNW 1021,6 23 0 0,0
23.09.2017 18:00:00 16,5 11,6 16,6 11 6 17 9 NW 1021,7 16 22 0,0
23.09.2017 17:00:00 19,0 9,2 19,8 10 5 18 10 SE 1021,8 25 60 0,0
23.09.2017 16:00:00 19,0 9,7 20,1 10 5 16 9 ESE 1022,4 27 57 0,0
23.09.2017 15:00:00 18,3 10,1 20,1 6 3 16 8 SE 1022,9 19 31 0,0
23.09.2017 14:00:00 17,3 11,8 20,1 7 4 12 7 ESE 1023,4 14 2 0,0
23.09.2017 13:00:00 16,5 11,8 20,3 5 3 11 6 ESE 1023,7 13 7 0,0
23.09.2017 12:00:00 15,6 11,2 19,2 4 2 9 5 E 1024,1 14 52 0,0
23.09.2017 11:00:00 13,7 10,7 12,9 2 1 15 8 SSE 1024,4 12 9 0,0
23.09.2017 10:00:00 11,0 9,4 9,7 10 5 15 8 SE 1024,1 14 40 0,0
23.09.2017 09:00:00 8,8 8,3 6,5 8 5 13 7 SE 1024,0 8 32 0,0
23.09.2017 08:00:00 7,0 6,6 6,0 9 5 13 7 SSE 1023,8 9 0 0,0
23.09.2017 07:00:00 7,1 6,5 6,1 10 6 14 7 SE 1024,0 8 0 0,0
23.09.2017 06:00:00 7,8 7,4 6,2 10 6 14 8 SE 1023,9 8 0 0,0
23.09.2017 05:00:00 7,4 6,8 6,5 9 5 12 7 SE 1024,0 11 0 0,0
23.09.2017 04:00:00 7,8 7,2 6,8 9 5 11 6 SE 1024,2 11 0 0,2
23.09.2017 03:00:00 8,2 7,6 6,3 5 3 10 6 SSE 1024,4 12 0 0,0
23.09.2017 02:00:00 8,3 7,7 5,9 6 3 9 5 SSE 1024,6 12 0 0,0
23.09.2017 01:00:00 8,4 7,6 4,8 6 3 8 5 SSE 1024,4 11 0 0,0
23.09.2017 00:00:00 9,0 8,2 5,9 4 2 8 4 S 1024,3 14 0 0,0
22.09.2017 23:00:00 9,3 8,5 4,9 5 3 8 4 S 1024,2 18 0 0,0
22.09.2017 22:00:00 9,9 8,8 5,6 4 2 8 4 SSE 1024,1 28 0 0,0
22.09.2017 21:00:00 10,4 8,8 6,9 2 1 8 4 S 1023,8 59 0 0,0
22.09.2017 20:00:00 13,0 9,1 10,5 5 3 16 9 W 1023,3 3,6 26 0,0
22.09.2017 19:00:00 15,5 8,2 14,4 9 5 23 12 W 1023,1 60 60 0,0
22.09.2017 18:00:00 16,1 10,0 19,5 10 5 22 12 W 1023,0 25 60 0,0
22.09.2017 17:00:00 16,4 10,0 16,9 13 7 23 12 WNW 1022,8 18 56 0,0
22.09.2017 16:00:00 16,2 10,9 17,5 14 8 21 11 WNW 1022,7 18 35 0,0
22.09.2017 15:00:00 15,8 12,0 19,6 11 6 23 12 WNW 1022,6 19 34 0,0
22.09.2017 14:00:00 16,3 12,6 18,6 14 8 29 15 NW 1022,4 24 20 0,0
22.09.2017 13:00:00 16,4 12,0 17,1 15 8 23 13 NW 1022,2 25 22 0,0
22.09.2017 12:00:00 15,3 13,0 17,0 9 5 21 12 WSW 1022,0 30 3 0,0
22.09.2017 11:00:00 15,6 12,9 17,3 6 4 14 7 W 1021,7 20 41 0,0
22.09.2017 10:00:00 14,2 14,0 11,6 5 3 7 4 SE 1021,4 5 38 0,0
22.09.2017 09:00:00 11,3 11,1 7,5 4 2 10 5 SSE 1021,0 0,7 15 0,0
22.09.2017 08:00:00 10,3 10,0 7,0 2 1 4 2 SSW 1020,5 0,2 0 0,0
22.09.2017 07:00:00 11,3 10,8 7,2 0 0 3 2 N 1019,9 1,4 0 0,0
22.09.2017 06:00:00 12,7 12,1 8,1 0 0 5 3 N 1019,8 16 0 0,0
22.09.2017 05:00:00 13,8 13,2 12,5 0 0 4 2 N 1019,7 35 0 0,0
22.09.2017 04:00:00 14,1 13,3 13,3 4 2 5 3 ESE 1019,6 40 0 0,2
22.09.2017 03:00:00 14,4 13,3 13,5 5 3 23 12 SSW 1019,7 30 0 0,4
22.09.2017 02:00:00 16,0 14,2 15,2 7 4 14 7 WSW 1019,5 56 0 0,0
22.09.2017 01:00:00 16,0 13,3 14,6 7 4 11 6 W 1019,1 60 0 0,0
22.09.2017 00:00:00 15,9 12,5 14,6 6 3 14 8 WSW 1018,9 59 0 0,0
21.09.2017 23:00:00 16,0 12,7 15,4 7 4 20 11 WNW 1018,8 60 0 0,0
21.09.2017 22:00:00 16,6 14,1 14,4 8 5 16 9 WNW 1018,7 48 0 0,0
21.09.2017 21:00:00 15,0 12,1 11,5 7 4 9 5 SE 1018,1 45 0 0,0
21.09.2017 20:00:00 15,5 11,9 12,1 3 2 7 4 SE 1017,6 2,7 7 0,0
21.09.2017 19:00:00 17,9 10,5 17,1 6 4 14 8 SSW 1017,4 60 35 0,0
21.09.2017 18:00:00 19,3 10,6 20,9 9 5 23 12 SW 1017,2 54 47 0,0
21.09.2017 17:00:00 20,0 10,1 20,5 14 7 29 15 S 1017,0 39 53 0,0
21.09.2017 16:00:00 19,2 8,8 20,1 16 8 34 18 S 1017,1 26 37 0,0
21.09.2017 15:00:00 19,7 9,6 21,7 20 11 35 19 S 1017,1 21 47 0,0
21.09.2017 14:00:00 19,4 9,0 22,8 22 12 36 19 S 1017,5 24 60 0,0
21.09.2017 13:00:00 18,8 10,4 21,3 16 9 28 15 S 1017,7 30 55 0,0
21.09.2017 12:00:00 17,5 10,1 17,7 15 8 25 14 S 1017,9 31 44 0,0
21.09.2017 11:00:00 15,7 9,8 16,3 12 7 25 14 S 1018,2 28 36 0,0
21.09.2017 10:00:00 14,6 10,0 13,2 12 7 23 12 SSE 1018,2 27 60 0,0
21.09.2017 09:00:00 11,8 9,2 10,2 10 5 20 11 SSE 1018,1 32 6 0,0
21.09.2017 08:00:00 11,0 8,9 9,8 11 6 17 9 SSE 1018,0 34 0 0,0
21.09.2017 07:00:00 10,5 9,1 9,1 10 5 15 8 SE 1017,9 22 0 0,0
21.09.2017 06:00:00 9,9 9,0 8,7 10 5 12 7 SE 1018,0 20 0 0,0
21.09.2017 05:00:00 9,6 8,8 8,4 9 5 11 6 SE 1018,5 18 0 0,0
21.09.2017 04:00:00 9,6 8,8 8,3 9 5 11 6 SE 1018,8 17 0 0,0
21.09.2017 03:00:00 9,6 8,8 8,3 10 5 11 6 SE 1018,9 17 0 0,2
21.09.2017 02:00:00 10,1 9,3 - 9 5 13 7 SE 1019,1 17 - -
21.09.2017 01:00:00 10,4 9,6 8,8 9 5 11 6 SE 1019,2 14 0 0,0
21.09.2017 00:00:00 11,1 10,3 9,1 8 5 11 6 SE 1019,1 14 0 0,0
20.09.2017 23:00:00 11,5 10,9 9,7 7 4 10 5 SE 1019,1 8 0 0,0
20.09.2017 22:00:00 12,2 11,4 8,2 8 4 9 5 SE 1019,3 10 0 0,0
20.09.2017 21:00:00 12,3 11,2 8,3 5 3 7 4 SE 1019,7 14 0 0,0
20.09.2017 20:00:00 14,3 12,2 11,0 3 1 8 5 SSW 1019,5 1,9 13 0,0
20.09.2017 19:00:00 16,3 11,7 15,9 6 3 17 9 SSW 1019,8 53 44 0,0
20.09.2017 18:00:00 16,6 11,7 18,0 10 5 23 12 WSW 1020,1 45 0 0,0
20.09.2017 17:00:00 16,6 11,1 18,6 11 6 28 15 SW 1020,5 16 0 0,0
20.09.2017 16:00:00 16,8 11,7 16,5 15 8 31 17 WSW 1020,8 47 0 0,0
20.09.2017 15:00:00 15,9 12,5 13,6 16 9 35 19 SW 1020,9 39 5 0,0
20.09.2017 14:00:00 14,4 12,6 13,4 13 7 29 15 S 1021,1 22 0 0,0
20.09.2017 13:00:00 15,0 12,1 15,5 16 9 29 16 SSW 1021,4 49 0 0,0
20.09.2017 12:00:00 14,5 12,2 14,6 12 6 25 13 S 1021,5 39 0 0,0
20.09.2017 11:00:00 14,6 12,3 14,8 16 9 26 14 SSW 1021,5 28 0 0,0
20.09.2017 10:00:00 13,8 13,2 13,0 8 4 19 10 S 1021,5 20 2 0,0
20.09.2017 09:00:00 12,1 11,6 11,0 6 3 9 5 SE 1021,4 11 7 0,0
20.09.2017 08:00:00 11,3 10,8 10,3 4 2 8 4 E 1021,5 10 0 0,0
20.09.2017 07:00:00 11,0 10,4 10,5 5 3 14 8 SE 1021,4 11 0 0,2
20.09.2017 06:00:00 10,8 10,2 9,5 6 3 11 6 SE 1021,4 11 0 0,0
20.09.2017 05:00:00 9,8 9,2 9,3 9 5 13 7 SE 1021,6 9 0 0,0
20.09.2017 04:00:00 9,5 8,7 9,0 7 4 11 6 SE 1022,1 14 0 0,0
20.09.2017 03:00:00 9,5 8,6 9,0 8 4 17 9 SE 1022,4 14 0 0,0
20.09.2017 02:00:00 9,3 8,5 7,8 8 4 11 6 SSE 1022,5 13 0 0,0
20.09.2017 01:00:00 9,0 8,2 7,4 6 3 9 5 SSE 1022,8 20 0 0,0
20.09.2017 00:00:00 9,5 8,4 6,6 4 2 9 5 SSE 1022,8 28 0 0,0
19.09.2017 23:00:00 9,5 7,9 6,2 2 1 6 4 SSE 1022,8 48 0 0,0
19.09.2017 22:00:00 11,4 8,6 9,2 5 3 14 8 WSW 1022,9 60 0 0,0
19.09.2017 21:00:00 13,2 8,3 10,0 7 4 15 8 W 1022,8 60 0 0,0
19.09.2017 20:00:00 12,9 8,2 10,3 6 3 13 7 W 1022,5 4,8 32 0,0
19.09.2017 19:00:00 14,7 8,2 14,0 8 5 19 11 W 1022,3 37 60 0,0
19.09.2017 18:00:00 15,2 8,2 17,3 12 6 27 15 WNW 1022,3 19 55 0,0
19.09.2017 17:00:00 15,3 9,4 16,4 16 9 28 15 WNW 1022,4 16 60 0,0
19.09.2017 16:00:00 15,0 9,6 16,4 17 9 28 15 NW 1022,0 16 60 0,0
19.09.2017 15:00:00 14,8 9,8 19,1 14 8 30 16 WNW 1021,9 15 48 0,0
19.09.2017 14:00:00 15,0 10,2 18,3 21 11 27 15 NNW 1021,9 16 50 0,0
19.09.2017 13:00:00 15,1 10,5 21,3 20 11 26 14 NNW 1021,6 19 60 0,0
19.09.2017 12:00:00 15,0 9,8 18,5 10 6 26 14 NW 1020,9 21 56 0,2
19.09.2017 11:00:00 13,8 9,8 14,5 20 11 31 17 N 1021,2 21 44 0,0
19.09.2017 10:00:00 13,1 10,1 14,6 22 12 29 16 NNW 1020,5 29 57 0,0
19.09.2017 09:00:00 11,1 9,7 5,6 5 3 10 5 NNW 1020,1 54 54 0,0
19.09.2017 08:00:00 9,2 8,4 5,5 4 2 12 7 NNW 1019,7 28 0 0,0
19.09.2017 07:00:00 10,2 9,3 6,4 5 3 11 6 NNW 1019,2 42 0 0,0
19.09.2017 06:00:00 10,9 9,8 9,6 9 5 16 8 N 1018,8 49 0 0,0
19.09.2017 05:00:00 11,0 10,4 9,8 6 3 13 7 N 1018,4 38 0 0,0
19.09.2017 04:00:00 10,2 9,9 9,5 0 0 5 3 N 1018,3 11 0 0,0
19.09.2017 03:00:00 9,8 9,5 9,1 4 2 6 3 SE 1018,5 7 0 0,2
19.09.2017 02:00:00 9,7 9,4 8,6 4 2 5 3 SSE 1018,6 12 0 0,0
19.09.2017 01:00:00 9,9 9,4 8,5 0 0 2 1 N 1018,4 6 0 0,0
19.09.2017 00:00:00 9,9 9,4 7,7 2 1 4 2 W 1018,6 34 0 0,0
18.09.2017 23:00:00 10,1 9,5 7,7 0 0 3 2 N 1018,6 15 0 0,0
18.09.2017 22:00:00 10,1 9,3 7,4 2 1 5 3 W 1018,6 1,1 0 0,0
18.09.2017 21:00:00 10,9 9,7 8,1 2 1 6 3 SSW 1018,3 38 0 0,0
18.09.2017 20:00:00 11,8 9,7 10,8 10 5 41 22 NNW 1017,8 18 6 0,6
18.09.2017 19:00:00 14,5 9,9 13,8 8 4 21 11 NW 1017,3 57 26 0,0
18.09.2017 18:00:00 14,3 10,1 12,6 13 7 32 17 WNW 1017,4 37 6 0,4
18.09.2017 17:00:00 15,4 10,0 16,6 16 8 28 15 WNW 1017,0 32 50 0,0
18.09.2017 16:00:00 16,0 10,7 17,3 19 11 32 17 NW 1016,8 9 58 0,0
18.09.2017 15:00:00 15,7 10,2 19,7 22 12 35 19 NNW 1016,8 12 54 0,0
18.09.2017 14:00:00 15,4 11,6 18,3 24 13 32 17 NNW 1016,7 14 37 0,0
18.09.2017 13:00:00 15,1 10,9 13,5 22 12 36 19 NNW 1016,5 14 20 0,6
18.09.2017 12:00:00 14,8 11,6 14,3 20 11 27 15 NW 1016,4 35 8 0,0
18.09.2017 11:00:00 13,5 11,7 13,2 10 5 18 10 NW 1016,3 31 1 0,0
18.09.2017 10:00:00 12,0 11,4 11,4 9 5 21 11 NW 1016,1 20 0 0,0
18.09.2017 09:00:00 10,4 10,1 8,6 3 1 6 3 SSE 1015,7 10 20 0,0
18.09.2017 08:00:00 9,2 8,9 8,5 3 2 7 4 SE 1015,5 8 0 0,0
18.09.2017 07:00:00 9,1 8,8 7,9 4 2 8 4 SSE 1015,3 7 0 0,0
18.09.2017 06:00:00 9,1 8,8 7,1 4 2 6 4 SSE 1015,1 7 0 0,0
18.09.2017 05:00:00 9,3 8,8 7,5 3 2 7 4 SSE 1015,0 6 0 0,0
18.09.2017 04:00:00 9,8 9,3 8,8 5 3 8 4 SSE 1015,0 7 0 0,0
18.09.2017 03:00:00 10,3 9,8 8,6 3 2 7 4 S 1015,0 11 0 0,2
18.09.2017 02:00:00 10,6 10,0 9,0 6 3 7 4 SE 1015,0 13 0 0,0
18.09.2017 01:00:00 11,6 10,7 10,6 2 1 18 10 W 1015,0 20 0 1,6
18.09.2017 00:00:00 11,9 11,3 10,7 4 2 11 6 S 1015,1 1,0 0 3,3
17.09.2017 23:00:00 12,1 11,0 10,5 2 1 10 5 W 1015,1 4,1 0 1,6
17.09.2017 22:00:00 11,1 10,0 9,3 0 0 4 2 N 1015,0 40 0 0,0
17.09.2017 21:00:00 10,8 9,4 8,3 0 0 5 3 N 1014,6 29 0 0,0

tt = Température de l'air
td = dewpoint
tt 5cm = Température de l'air 5cm
ff = Vitesse du vent
fx = gusts
dd = Direction du vent
ppp = reduced air pressure
vv = visibility
sd = Ensoleillement
rr = Quantités de précipitations

stations d'obs. à proximité